TimeMST,TemperatureF,Dew PointF,Humidity,Sea Level PressureIn,VisibilityMPH,Wind Direction,Wind SpeedMPH,Gust SpeedMPH,PrecipitationIn,Events,Conditions,WindDirDegrees,DateUTC
12:53 AM,35.1,26.1,70,30.01,10.0,WSW,6.9,-,N/A,,Clear,250,2013-03-03 07:53:00
1:53 AM,37.0,25.0,62,29.97,10.0,WSW,5.8,-,N/A,,Clear,240,2013-03-03 08:53:00
2:53 AM,35.1,24.1,64,29.93,10.0,WSW,8.1,-,N/A,,Clear,240,2013-03-03 09:53:00
3:53 AM,37.0,25.0,62,29.89,10.0,SW,9.2,-,N/A,,Clear,230,2013-03-03 10:53:00
4:53 AM,41.0,26.1,55,29.86,10.0,SW,10.4,-,N/A,,Clear,230,2013-03-03 11:53:00
5:53 AM,37.0,25.0,62,29.88,10.0,SW,8.1,-,N/A,,Clear,230,2013-03-03 12:53:00
6:53 AM,42.1,26.1,53,29.84,10.0,SW,12.7,-,N/A,,Clear,220,2013-03-03 13:53:00
7:53 AM,48.0,27.0,44,29.82,10.0,SSW,10.4,-,N/A,,Clear,210,2013-03-03 14:53:00
8:53 AM,50.0,28.0,43,29.81,10.0,SW,6.9,-,N/A,,Clear,230,2013-03-03 15:53:00
9:53 AM,55.9,27.0,33,29.78,10.0,WSW,8.1,-,N/A,,Clear,250,2013-03-03 16:53:00
10:53 AM,61.0,28.0,29,29.72,10.0,WSW,8.1,-,N/A,,Clear,250,2013-03-03 17:53:00
11:53 AM,61.0,30.9,32,29.70,10.0,NW,12.7,-,N/A,,Clear,320,2013-03-03 18:53:00
12:53 PM,63.0,28.0,27,29.65,10.0,North,13.8,-,N/A,,Clear,360,2013-03-03 19:53:00
1:53 PM,64.9,26.1,23,29.61,10.0,North,16.1,-,N/A,,Clear,350,2013-03-03 20:53:00
2:53 PM,66.0,26.1,22,29.61,10.0,NNW,13.8,-,N/A,,Clear,340,2013-03-03 21:53:00
3:53 PM,64.9,25.0,22,29.60,10.0,NNE,11.5,-,N/A,,Clear,20,2013-03-03 22:53:00
4:53 PM,57.9,30.0,35,29.60,10.0,NNE,4.6,-,N/A,,Clear,20,2013-03-03 23:53:00
5:53 PM,48.9,33.1,54,29.64,10.0,Calm,Calm,-,N/A,,Clear,0,2013-03-04 00:53:00
6:53 PM,48.9,30.0,48,29.62,10.0,East,4.6,-,N/A,,Clear,90,2013-03-04 01:53:00
7:53 PM,43.0,32.0,65,29.62,10.0,South,8.1,-,N/A,,Clear,180,2013-03-04 02:53:00
8:53 PM,44.1,33.1,65,29.62,10.0,SSW,6.9,-,N/A,,Clear,200,2013-03-04 03:53:00
9:53 PM,37.9,32.0,79,29.62,10.0,WSW,4.6,-,N/A,,Clear,240,2013-03-04 04:53:00
10:53 PM,39.0,30.0,70,29.61,10.0,WSW,6.9,-,N/A,,Clear,250,2013-03-04 05:53:00
11:53 PM,35.1,28.9,78,29.63,10.0,WNW,6.9,-,N/A,,Partly Cloudy,300,2013-03-04 06:53:00